Theta_e
314 325 322 317 315 314 316 315 315 315 314 314 316 316 316 315 315 314 315 316 315 313 312 311 313 313 312 311 311 312 312 312 312 311 311 310 310 310 310 309 309 308 308 308
315 322 315 313 313 315 315 315 315 314 313 312 314 315 315 315 314 316 316 316 315 314 313 313 313 313 312 312 312 311 311 311 311 311 311 310 310 310 310 310 310 309 308 308
320 316 313 313 314 315 315 315 315 317 315 313 312 316 316 315 315 315 315 315 315 314 314 314 313 313 312 311 310 310 309 310 310 310 310 311 311 311 311 310 309 308 308 308
316 313 312 314 313 313 315 314 314 314 316 319 313 315 316 318 316 315 316 316 315 315 314 313 312 311 310 309 309 309 308 308 307 308 309 309 310 309 309 308 308 307 307 307
316 314 314 315 315 313 317 314 314 315 317 316 316 320 318 313 314 316 316 316 315 314 313 312 310 308 308 309 310 309 308 307 306 307 306 307 308 307 307 307 307 307 306 306
314 313 314 314 313 313 312 313 313 315 318 328 318 320 322 318 316 316 315 314 314 313 311 309 308 308 309 309 309 308 307 306 306 306 306 306 306 306 306 306 306 306 305 305
314 314 313 313 316 313 313 319 337 338 335 328 315 318 319 315 314 315 315 314 313 312 309 308 308 309 309 308 308 306 306 306 305 305 305 305 305 305 305 305 304 304 304 304
321 321 314 312 314 317 315 315 330 323 320 318 309 315 322 312 312 313 314 314 313 311 309 309 309 309 308 307 307 307 306 305 305 304 304 304 304 303 303 303 303 303 302 302
313 317 313 313 313 313 315 315 309 314 310 311 314 315 312 310 311 313 313 314 313 310 309 309 309 308 308 307 307 306 305 305 304 303 303 303 303 303 303 303 303 302 302 301
310 317 312 313 312 311 312 309 314 315 316 313 314 313 323 319 312 313 315 314 313 310 309 309 308 308 307 307 306 305 304 303 303 303 303 302 303 302 302 302 302 302 301 301
307 309 312 312 314 315 311 311 310 310 310 312 310 319 312 316 313 313 315 314 314 311 309 309 308 307 307 306 305 304 304 303 303 303 303 303 302 302 302 302 302 301 301 300
307 307 312 311 308 308 311 312 311 311 311 309 308 311 308 309 310 310 313 314 314 313 310 308 308 307 306 306 305 304 303 303 302 302 302 302 302 302 302 302 301 300 300 300
308 308 310 308 308 308 310 309 310 308 309 309 307 309 308 310 311 310 310 310 311 313 310 308 307 307 306 306 305 304 303 302 302 301 301 302 302 302 300 298 297 296 296 295
306 307 308 310 309 310 309 310 309 308 314 309 309 308 308 309 311 312 310 310 309 309 309 308 307 306 306 306 304 304 303 301 300 299 299 299 299 298 296 295 294 294 294 294
308 308 307 305 305 305 306 307 310 310 309 309 310 312 313 313 311 309 309 308 307 307 307 307 307 307 307 306 304 304 303 301 299 297 296 296 296 295 294 294 294 294 293 294
307 308 307 310 310 309 308 308 307 308 309 310 310 311 312 309 309 308 307 306 306 305 305 306 306 307 307 306 305 304 302 300 298 297 295 294 294 294 294 293 293 293 293 293
308 308 313 319 313 313 317 315 314 313 311 310 312 312 307 308 307 306 306 306 306 306 305 305 305 306 306 305 304 304 303 300 297 296 295 294 294 294 293 293 293 292 292 292
309 309 312 317 315 320 314 309 310 313 310 309 309 308 307 307 306 306 305 305 305 305 305 306 305 305 305 304 303 302 301 299 297 296 295 295 294 294 293 293 293 292 292 292
307 310 314 317 318 317 315 306 308 310 310 306 307 307 306 305 307 307 305 305 304 303 303 304 304 305 304 304 303 302 300 299 297 295 295 296 296 294 294 293 293 292 292 291
308 308 312 314 316 318 310 307 305 304 312 306 306 305 306 307 308 309 305 303 302 302 302 302 302 302 302 302 301 300 299 299 298 297 296 296 295 294 293 293 292 292 292 291
310 310 313 314 315 314 310 307 305 312 311 305 305 306 305 306 306 304 302 302 301 301 301 301 301 301 301 299 297 297 297 297 297 296 296 296 295 294 293 293 292 292 291 291
313 314 313 313 314 315 307 305 308 307 305 304 304 304 303 302 302 301 301 301 301 301 301 300 300 299 298 297 296 296 296 296 296 295 294 293 292 292 292 292 292 291 291 291
312 312 312 312 313 307 306 306 303 302 303 303 302 301 301 301 301 300 300 299 299 298 298 298 298 297 297 297 296 295 294 293 292 292 291 291 291 291 290 290 291 291 291 291
310 309 308 310 308 307 304 302 302 302 301 300 300 300 299 298 297 296 295 295 295 295 295 295 295 294 294 293 293 292 292 292 292 292 292 291 291 291 290 290 290 290 290 290
309 307 309 309 306 303 302 302 301 300 300 298 297 296 295 295 294 293 292 292 292 292 292 293 293 293 293 293 293 293 293 292 291 291 291 291 290 290 290 289 289 289 289 289
308 308 309 312 305 306 303 302 299 298 297 295 295 294 293 292 291 290 290 290 290 290 290 290 291 291 292 292 292 292 292 292 291 291 290 290 289 289 289 289 289 289 289 289
Wind_Speed
5 3 8 12 1 3 3 7 6 4 2 4 7 11 12 10 11 11 9 4 3 6 7 8 9 8 7 5 3 1 2 4 4 4 5 4 5 6 6 6 7 8 8 9
5 5 5 2 1 5 4 5 4 5 2 3 8 14 14 10 7 4 2 3 5 7 8 9 9 7 5 4 3 2 3 4 4 4 4 3 6 5 6 6 8 9 10 10
4 5 1 2 4 6 4 3 3 2 3 4 9 13 7 4 3 3 2 2 6 8 10 9 9 7 6 5 4 4 4 3 4 4 4 5 6 7 6 8 10 10 12 11
7 2 2 3 4 6 4 3 3 2 3 3 3 6 7 8 6 5 6 6 7 8 9 8 8 7 6 6 5 4 3 3 4 5 4 6 6 8 9 10 10 13 11 11
2 3 3 3 4 6 5 1 3 2 2 4 5 3 3 3 6 8 8 8 8 8 8 8 8 8 7 6 4 3 2 3 4 4 6 6 7 8 9 11 12 11 11 11
5 2 4 3 5 5 7 2 1 1 1 3 2 3 4 3 1 4 9 9 9 8 7 8 9 9 8 6 4 2 1 3 4 5 6 7 8 9 10 12 12 12 13 12
4 3 2 1 2 2 2 0 0 1 2 2 3 3 7 3 2 1 10 11 10 10 9 9 10 10 9 7 4 2 1 2 4 5 6 7 8 9 10 11 11 14 13 13
5 2 2 2 2 2 2 2 2 4 2 2 4 6 2 4 1 2 5 9 10 10 9 10 11 10 9 6 4 1 1 3 4 6 7 7 9 9 9 10 11 11 12 13
4 3 3 2 1 3 4 4 2 2 1 3 4 5 6 2 3 3 5 7 9 9 9 10 11 10 9 7 3 0 2 3 5 6 7 7 8 8 9 9 10 10 11 13
1 3 0 2 2 2 3 1 1 1 3 4 5 4 2 2 1 4 6 9 10 10 11 10 12 11 9 6 3 1 1 2 3 5 5 6 6 7 7 8 9 10 11 12
2 2 3 1 5 0 3 2 2 3 3 3 6 2 2 4 0 3 6 9 11 12 11 10 12 10 8 6 4 3 2 2 3 4 5 5 5 6 7 8 9 10 11 11
3 3 2 2 2 2 3 3 6 3 4 1 3 6 3 4 4 2 3 3 8 9 10 10 12 12 11 9 7 5 3 2 2 3 4 5 6 7 8 9 10 11 11 11
1 2 2 3 3 3 5 9 7 2 1 7 5 1 4 6 5 4 6 9 11 7 9 9 12 14 13 11 9 7 5 3 2 3 4 6 7 8 9 10 11 11 12 12
3 3 7 4 3 3 4 9 11 10 4 7 12 14 9 6 6 11 11 8 6 8 9 11 11 15 15 12 10 8 6 4 3 3 4 6 7 8 9 10 11 11 11 12
3 4 2 9 8 6 9 10 14 16 18 9 15 14 13 14 11 6 9 7 9 10 10 11 12 13 14 13 11 8 5 4 4 5 6 6 7 8 9 10 10 11 11 11
2 2 2 5 2 7 12 15 17 19 20 18 21 22 10 8 8 9 9 9 10 11 10 9 10 13 13 13 10 6 5 6 5 6 7 7 8 9 10 11 11 12 12 13
3 2 1 4 2 7 12 12 18 12 11 10 14 10 8 6 6 6 7 9 11 12 12 10 6 9 11 10 6 7 6 6 7 8 8 8 9 10 12 12 13 14 15 14
3 4 2 5 6 5 3 2 5 9 4 5 10 6 4 5 1 4 8 10 11 12 12 10 7 6 7 7 7 7 7 8 9 9 10 11 11 11 12 14 15 16 15 15
7 6 4 4 6 13 12 3 1 4 6 3 3 2 5 8 4 6 10 13 13 13 15 16 13 10 10 10 10 10 10 10 11 12 11 12 12 14 15 16 16 17 17 17
7 7 6 3 5 5 5 5 1 1 6 6 3 3 7 10 4 3 17 15 14 16 16 15 14 13 13 12 10 11 12 12 13 13 13 13 14 14 15 17 18 19 18 20
4 5 12 11 7 8 5 5 1 4 2 5 3 5 6 6 7 14 13 12 14 14 15 14 14 14 14 10 9 10 12 14 13 13 14 14 16 17 18 20 20 20 21 21
6 5 5 6 5 9 2 4 5 4 7 4 3 6 9 9 10 11 11 11 14 15 16 15 15 15 14 12 12 14 15 15 14 14 15 17 19 19 19 20 21 22 21 22
5 9 5 6 2 5 6 9 8 6 1 5 7 6 6 7 8 10 11 12 16 17 17 16 16 16 15 15 14 15 17 16 16 16 18 19 20 21 22 21 22 22 21 21
10 6 5 6 5 4 6 4 2 3 7 5 2 5 6 7 9 10 10 12 17 19 19 19 18 19 20 19 18 18 18 19 20 21 22 22 22 23 23 23 23 22 22 22
4 3 7 11 2 3 1 6 6 3 3 3 3 5 6 7 9 11 11 14 18 20 20 20 20 20 22 23 23 22 22 22 23 24 24 22 22 23 24 24 24 24 25 25
5 11 9 4 5 3 4 7 5 5 5 5 6 7 8 9 10 14 13 18 19 20 21 21 22 23 25 26 27 27 27 27 27 25 22 21 22 23 23 23 25 27 29 30
Wind_Direction
167 192 187 187 28 32 123 206 211 114 105 289 253 271 271 259 248 266 259 266 215 180 138 153 144 142 134 129 124 44 349 337 340 345 348 339 341 332 329 325 326 326 321 321
172 157 57 81 158 116 135 178 160 121 131 287 290 279 269 270 258 276 253 193 158 144 159 154 149 142 136 115 86 36 5 354 351 349 333 319 322 314 315 316 328 323 322 316
166 91 125 209 137 140 66 298 96 6 302 238 294 266 201 192 194 167 179 115 152 161 155 154 153 141 132 103 84 77 53 28 11 351 334 328 311 317 320 329 327 326 324 318
74 79 118 129 92 331 173 42 68 7 328 298 342 293 208 172 190 206 176 175 152 147 149 149 145 140 127 115 106 95 69 36 16 7 349 343 333 330 329 327 327 329 331 330
75 99 81 97 17 330 72 64 51 19 324 322 170 253 246 107 219 211 197 176 163 158 158 151 148 144 137 133 125 123 91 40 15 6 4 351 343 337 332 334 334 334 335 336
89 89 28 62 60 50 130 166 104 127 287 237 82 241 276 195 68 176 186 175 168 162 155 154 153 153 153 150 147 133 100 35 12 8 2 357 349 343 342 341 340 339 334 336
127 53 90 341 143 148 237 209 158 273 199 284 176 242 265 153 153 238 189 181 177 172 173 168 169 171 171 166 157 139 53 14 3 1 2 359 354 349 346 345 340 337 336 336
161 206 176 29 335 332 171 271 274 260 253 23 176 236 249 110 243 190 241 183 179 183 183 182 180 182 181 171 165 158 26 2 357 1 1 0 359 354 348 343 339 337 334 331
161 131 131 49 325 310 139 216 24 298 192 260 226 245 166 15 185 202 197 186 193 196 194 194 192 196 189 188 188 277 355 350 1 3 1 2 360 357 351 346 345 341 339 334
79 117 43 94 293 80 312 35 190 197 263 253 218 263 286 30 247 201 201 211 207 205 204 201 201 201 199 196 197 228 292 339 358 360 0 1 357 353 347 346 346 344 340 339
331 279 108 214 199 242 150 213 238 301 278 287 304 98 95 182 151 228 214 212 217 216 215 211 211 208 208 207 211 230 268 322 345 353 353 349 344 340 338 338 337 334 332 332
30 327 161 57 87 332 299 278 245 249 168 272 298 281 117 58 33 356 314 274 252 234 227 222 218 211 213 216 214 221 232 260 315 341 342 332 326 326 327 324 321 319 318 319
63 207 207 184 179 197 232 204 228 201 312 238 269 241 128 120 106 80 323 313 308 247 243 233 223 218 219 215 214 215 222 241 289 324 324 320 316 317 318 316 315 314 313 313
315 273 260 278 36 112 196 206 211 205 202 238 229 266 245 262 314 335 344 314 290 284 258 245 231 224 222 218 214 213 218 228 258 286 297 300 302 303 305 306 309 311 312 313
301 282 308 296 284 252 264 237 213 214 225 241 266 276 295 327 339 347 323 343 327 316 301 261 239 230 220 217 214 210 216 235 258 269 278 286 291 294 297 299 302 304 305 304
181 262 331 278 274 259 257 254 250 242 247 258 271 281 329 16 342 334 357 355 353 349 333 296 250 242 230 226 223 217 232 244 256 276 285 291 292 294 293 294 296 298 298 298
230 253 277 263 333 306 270 252 237 231 242 255 256 275 4 1 18 41 32 20 15 7 1 347 302 255 249 242 243 250 261 261 262 269 275 279 279 281 285 289 292 293 294 293
225 232 282 288 300 250 74 1 310 220 238 276 254 302 6 356 104 94 47 18 1 356 355 350 332 292 274 266 265 268 269 269 269 276 281 278 276 279 286 289 288 288 289 289
223 225 252 254 249 296 275 155 135 208 207 230 162 90 13 344 238 193 27 359 345 340 339 335 326 313 297 280 277 277 274 271 268 267 271 276 282 284 285 286 289 291 291 289
215 247 244 173 260 265 96 133 61 203 256 136 119 55 12 348 302 327 351 343 343 343 341 337 328 315 304 300 304 292 287 283 279 281 282 285 286 281 281 283 286 287 284 281
175 210 223 235 255 273 102 130 81 233 58 128 48 7 344 323 305 311 324 331 337 337 337 333 323 313 304 303 298 287 285 281 288 288 286 286 287 285 280 280 280 282 284 281
204 208 205 222 245 262 82 139 227 81 79 46 343 302 290 302 317 324 333 326 326 323 320 317 310 307 305 298 292 290 289 294 293 288 289 289 288 287 284 279 278 279 280 279
244 226 300 221 254 95 50 90 81 87 136 273 266 319 332 321 325 319 316 317 317 316 315 313 309 304 298 293 288 286 290 295 294 290 286 285 283 281 280 278 273 271 273 273
256 238 246 272 162 182 119 108 159 243 264 332 350 321 312 311 317 319 323 322 319 318 316 315 310 301 296 294 289 282 284 288 288 284 282 281 279 279 280 279 276 271 271 271
293 166 243 268 71 93 213 240 255 247 250 280 281 286 300 311 313 314 313 310 308 307 305 305 302 295 292 290 288 290 291 291 286 279 275 277 277 274 274 273 273 274 272 271
211 238 253 262 143 206 281 191 202 229 236 252 261 278 292 301 303 309 306 304 303 302 303 303 301 298 292 291 288 287 287 285 280 276 274 274 274 274 275 274 276 275 275 275